User: anonymous
Location: Caltech
(34.1382°N, 118.1253°W)
Time: 02:49:11
(UTC-07:00)
Language:

Gbstr 26 Del rocket - Orbit

View from above orbital plane
View from above orbital plane
View from above satellite
View from above satellite

Ground track
Ground track

The orbit data is extracted from the following two-line orbital elements,

1 25876U 99041E   14212.13168000  .00000038  00000-0  46883-4 0  4281
2 25876 051.7668 143.5657 0540010 204.7428 265.4497 14.02141641766887
Epoch (UTC): 31 July 2014 03:09:37
Eccentricity: 0.0540010
inclination: 51.7668°
perigee height: 494 km
apogee height: 1278 km
right ascension of ascending node: 143.5657°
argument of perigee: 204.7428°
revolutions per day: 14.02141641
mean anomaly at epoch: 265.4497°
orbit number at epoch: 76688

The dashed part of the orbit path shows where the satellite is in the earth's shadow,  

DLR